STARLINK-4552 (53420 NORAD) Tracking and Keplerian Element Data

This shows tracking and keplerian element data for the satellite.

Feedback or suggestion? Click here.




ElementValue
Catalog53420
NameSTARLINK-4552
Epoch Orbit797
Epoch Day270.25001157
Epoch Year2022
RAAN11.5155
Inclination53.2177
Eccentricity0.00021
Argument of Perigee49.2512
Mean Anonmoly226.076
Mean Motion15.49869607
Decay Rate0.00043267
L11 53420U 22097AJ 22270.25001157 .00043267 00000+0 76646-3 0 9991
L22 53420 53.2177 11.5155 0002100 49.2512 226.0760 15.49869607 7976

Live tracking and technical data element details for STARLINK-4552 (NORAD 53420). STARLINK-4552 can be tracked NOW for your location showing map with azimuth and elevation plus other details from your city location.

Track the satellite on the map from your city or location and see movement details for azimuth, elevation, latitude, longitude, range, height, and movement on the map or in text.







IsCatalogInMostPopularTable: catalog: 53420, numindb: 2
Update: records affected: 1



GetName: 53420 STARLINK-4552

Hit Count: updated at: Thu, 29 Sep 2022 10:41:54 GMT